OH2EWK-15 Espoo FI current weather conditions

sailwx.info

Air temperature 24.4° C
Dewpoint 16.2° C

Last reported at 2020-Aug-08 17:05 UTC.
Time now 2020-Aug-08 17:21 UTC

Location: N 60°20' E 024°39'.
View on Google Maps.

See reports from other nearby stations

  
Tides and Currents Weather Stations Pressure Air Temp Water Temp Dewpoint Dewpoint Depression Visibility Wind Speed Wind Dir Waves Ship Positions
date/time (UTC)wind fromknots sea level pressurealtimeterstation pressurevisibilityair tempwater tempwave heightnotes
2020-Aug-08 17:05 24.4
2020-Aug-08 17:00 24.4
2020-Aug-08 16:55 24.4
2020-Aug-08 16:50 25.0
2020-Aug-08 16:45 25.0
2020-Aug-08 16:40 25.0
2020-Aug-08 16:35 233 0 gusting 7 25.0
2020-Aug-08 16:30 245 0 gusting 7 25.0
2020-Aug-08 16:25 260 0 gusting 5 25.6
2020-Aug-08 16:20 253 0 gusting 6 25.6
2020-Aug-08 16:15 255 0 gusting 6 25.6
2020-Aug-08 16:10 259 0 gusting 6 25.6
2020-Aug-08 16:05 247 0 gusting 6 25.6
2020-Aug-08 16:00 241 1 gusting 6 26.1
2020-Aug-08 15:55 250 1 gusting 6 26.1
2020-Aug-08 15:50 244 0 gusting 6 26.1
2020-Aug-08 15:45 237 0 gusting 6 26.7
2020-Aug-08 15:40 259 0 gusting 6 26.7
2020-Aug-08 15:35 265 0 gusting 6 26.7
2020-Aug-08 15:30 253 0 gusting 6 27.2
2020-Aug-08 15:25 258 0 gusting 6 27.2
2020-Aug-08 15:20 264 0 gusting 6 27.2
2020-Aug-08 15:15 268 0 gusting 6 27.2
2020-Aug-08 15:10 273 0 gusting 5 27.2
2020-Aug-08 15:05 268 0 gusting 5 27.2
2020-Aug-08 15:00 258 0 gusting 5 27.2
2020-Aug-08 14:55 261 0 gusting 7 27.2
2020-Aug-08 14:50 249 1 gusting 7 26.7
2020-Aug-08 14:40 267 1 gusting 6 26.7
2020-Aug-08 14:35 277 0 gusting 6 26.7
2020-Aug-08 14:30 277 0 gusting 6 26.7
2020-Aug-08 14:25 263 0 gusting 6 27.2
2020-Aug-08 14:20 259 0 gusting 6 27.2
2020-Aug-08 14:15 257 0 gusting 5 27.8
2020-Aug-08 14:10 264 1 gusting 6 27.2
2020-Aug-08 14:05 268 0 gusting 6 27.2
2020-Aug-08 14:00 268 0 gusting 5 27.8
2020-Aug-08 13:55 272 0 gusting 6 27.2
2020-Aug-08 13:50 284 0 gusting 6 27.2
2020-Aug-08 13:45 275 1 gusting 7 27.2
2020-Aug-08 13:40 270 1 gusting 7 27.2
2020-Aug-08 13:35 274 1 gusting 7 27.2
2020-Aug-08 13:30 276 2 gusting 8 27.2
2020-Aug-08 13:25 272 1 gusting 8 27.8
2020-Aug-08 13:20 260 0 gusting 6 27.8
2020-Aug-08 13:15 227 0 gusting 5 27.8
2020-Aug-08 13:10 219 0 gusting 4 27.8
2020-Aug-08 13:05 236 1 gusting 6 27.8
2020-Aug-08 13:00 231 0 gusting 6 27.8
2020-Aug-08 12:55 234 0 gusting 6 27.8
2020-Aug-08 12:50 284 0 gusting 6 27.8
2020-Aug-08 12:45 265 2 gusting 7 27.2
2020-Aug-08 12:40 252 1 gusting 7 27.8
2020-Aug-08 12:35 244 0 gusting 5 27.8
2020-Aug-08 12:30 253 1 gusting 5 27.8
2020-Aug-08 12:25 237 1 gusting 8 27.2
2020-Aug-08 12:20 223 1 gusting 8 27.8
2020-Aug-08 12:15 254 0 gusting 8 27.8
2020-Aug-08 12:10 273 1 gusting 7 27.2
2020-Aug-08 12:05 269 0 gusting 7 27.2
2020-Aug-08 12:00 248 0 gusting 5 27.2
2020-Aug-08 11:55 262 1 gusting 6 27.2
2020-Aug-08 11:50 274 0 gusting 6 27.2
2020-Aug-08 11:45 275 0 gusting 5 27.2
2020-Aug-08 11:40 267 1 gusting 6 27.2
2020-Aug-08 11:35 264 0 gusting 6 27.8
2020-Aug-08 11:30 258 0 gusting 6 27.8
2020-Aug-08 11:25 285 0 gusting 5 27.2
2020-Aug-08 11:20 279 0 gusting 5 27.2
2020-Aug-08 11:10 251 0 gusting 6 27.2
2020-Aug-08 11:05 258 0 gusting 6 26.7
2020-Aug-08 11:00 249 0 gusting 6 26.7
2020-Aug-08 10:55 245 1 gusting 7 26.7
2020-Aug-08 10:50 252 0 gusting 7 26.7
2020-Aug-08 10:45 297 0 gusting 4 27.2
2020-Aug-08 10:40 299 0 gusting 4 26.7
2020-Aug-08 10:35 230 0 gusting 6 26.7
2020-Aug-08 10:30 260 1 gusting 7 26.7
2020-Aug-08 10:25 278 0 gusting 7 26.7
2020-Aug-08 10:20 255 0 gusting 6 26.7
2020-Aug-08 10:10 192 0 gusting 6 26.7
2020-Aug-08 10:05 260 0 gusting 6 26.7
2020-Aug-08 10:00 258 0 gusting 6 26.1
2020-Aug-08 09:55 269 0 gusting 4 26.1
2020-Aug-08 09:50 280 0 gusting 4 26.1
2020-Aug-08 09:45 270 0 gusting 6 26.1
2020-Aug-08 09:40 266 0 gusting 6 26.1
2020-Aug-08 09:35 263 0 gusting 5 26.1
2020-Aug-08 09:30 276 0 gusting 5 26.1
2020-Aug-08 09:25 273 0 gusting 5 25.6
2020-Aug-08 09:20 267 0 gusting 5 25.6
2020-Aug-08 09:15 265 1 gusting 7 25.6
2020-Aug-08 09:10 262 1 gusting 7 25.6
2020-Aug-08 09:05 263 0 gusting 4 25.6
2020-Aug-08 09:00 265 0 gusting 4 25.6
2020-Aug-08 08:55 25.6
2020-Aug-08 08:50 25.6
2020-Aug-08 08:45 25.6
2020-Aug-08 08:40 25.6
2020-Aug-08 08:35 25.6
2020-Aug-08 08:30 25.6
2020-Aug-08 08:25 25.0
2020-Aug-08 08:20 25.0
2020-Aug-08 08:15 25.0
2020-Aug-08 08:10 25.0
2020-Aug-08 08:05 25.0
2020-Aug-08 08:00 25.0
2020-Aug-08 07:55 25.0
2020-Aug-08 07:50 24.4
2020-Aug-08 07:45 24.4
2020-Aug-08 07:40 24.4
2020-Aug-08 07:35 23.9
2020-Aug-08 07:30 23.9
2020-Aug-08 07:25 23.9
2020-Aug-08 07:20 23.9
2020-Aug-08 07:15 23.3
2020-Aug-08 07:10 23.3
2020-Aug-08 07:05 23.3
2020-Aug-08 07:00 22.8
2020-Aug-08 06:55 22.8
2020-Aug-08 06:50 22.8
2020-Aug-08 06:45 22.2
2020-Aug-08 06:40 22.2
2020-Aug-08 06:30 21.7
2020-Aug-08 06:25 21.7
2020-Aug-08 06:20 21.7
2020-Aug-08 06:15 21.7
2020-Aug-08 06:10 21.1
2020-Aug-08 06:05 21.1
2020-Aug-08 06:00 20.6
2020-Aug-08 05:55 20.6
2020-Aug-08 05:50 20.6
2020-Aug-08 05:45 20.0
2020-Aug-08 05:40 19.4
2020-Aug-08 05:35 19.4
2020-Aug-08 05:30 19.4
2020-Aug-08 05:25 18.9
2020-Aug-08 05:15 18.3
2020-Aug-08 05:10 18.3
2020-Aug-08 05:00 17.8
2020-Aug-08 04:55 17.2
2020-Aug-08 04:50 16.7
2020-Aug-08 04:45 16.7
2020-Aug-08 04:40 16.1
2020-Aug-08 04:35 16.1
2020-Aug-08 04:30 15.6
2020-Aug-08 04:25 15.6
2020-Aug-08 04:20 15.6
2020-Aug-08 04:15 15.0
2020-Aug-08 04:10 15.0
2020-Aug-08 04:05 14.4
2020-Aug-08 04:00 14.4
2020-Aug-08 03:55 13.9
2020-Aug-08 03:50 13.3
2020-Aug-08 03:45 13.3
2020-Aug-08 03:40 12.8
2020-Aug-08 03:35 12.8
2020-Aug-08 03:30 12.8
2020-Aug-08 03:25 12.8
2020-Aug-08 03:20 12.8
2020-Aug-08 03:15 12.8
2020-Aug-08 03:10 12.8
2020-Aug-08 03:05 12.8
2020-Aug-08 03:00 12.8
2020-Aug-08 02:55 12.8
2020-Aug-08 02:50 12.8
2020-Aug-08 02:45 12.8
2020-Aug-08 02:40 12.8
2020-Aug-08 02:35 13.3
2020-Aug-08 02:30 13.3
2020-Aug-08 02:25 13.3
2020-Aug-08 02:20 13.3
2020-Aug-08 02:15 13.3
2020-Aug-08 02:10 13.3
2020-Aug-08 02:05 13.3
2020-Aug-08 02:00 13.3
2020-Aug-08 01:55 13.3
2020-Aug-08 01:50 13.3
2020-Aug-08 01:45 13.3
2020-Aug-08 01:40 13.3
2020-Aug-08 01:35 13.3
2020-Aug-08 01:30 13.9
2020-Aug-08 01:25 13.9
2020-Aug-08 01:20 13.9
2020-Aug-08 01:15 13.9
2020-Aug-08 01:10 13.9
2020-Aug-08 01:05 13.9
2020-Aug-08 01:00 13.9
2020-Aug-08 00:55 13.9
2020-Aug-08 00:50 13.9
2020-Aug-08 00:45 13.9
2020-Aug-08 00:40 13.9
2020-Aug-08 00:35 14.4
2020-Aug-08 00:30 14.4
2020-Aug-08 00:25 14.4
2020-Aug-08 00:20 14.4
2020-Aug-08 00:15 14.4
2020-Aug-08 00:10 14.4
2020-Aug-08 00:05 14.4
2020-Aug-08 00:00 14.4
2020-Aug-07 23:55 14.4
2020-Aug-07 23:50 14.4
2020-Aug-07 23:45 14.4
2020-Aug-07 23:40 14.4
2020-Aug-07 23:35 15.0
2020-Aug-07 23:30 15.0
2020-Aug-07 23:25 15.0
2020-Aug-07 23:20 15.0
2020-Aug-07 23:15 15.0
2020-Aug-07 23:10 15.0
2020-Aug-07 23:05 15.0
2020-Aug-07 23:00 15.0
2020-Aug-07 22:55 15.0
2020-Aug-07 22:50 15.6
2020-Aug-07 22:45 15.6
2020-Aug-07 22:40 15.6
2020-Aug-07 22:35 15.6
2020-Aug-07 22:30 15.6
2020-Aug-07 22:25 15.6
2020-Aug-07 22:20 15.6
2020-Aug-07 22:15 15.6
2020-Aug-07 22:10 15.6
2020-Aug-07 22:05 15.6
2020-Aug-07 22:00 15.6
2020-Aug-07 21:55 15.6
2020-Aug-07 21:50 16.1
2020-Aug-07 21:45 16.1
2020-Aug-07 21:40 16.1
2020-Aug-07 21:35 16.1
2020-Aug-07 21:30 16.1
2020-Aug-07 21:25 16.1
2020-Aug-07 21:20 16.1
2020-Aug-07 21:15 16.7
2020-Aug-07 21:10 16.7
2020-Aug-07 21:05 16.7
2020-Aug-07 20:55 16.7
2020-Aug-07 20:50 16.7
2020-Aug-07 20:45 16.7
2020-Aug-07 20:40 16.7
2020-Aug-07 20:35 17.2
2020-Aug-07 20:30 17.2
2020-Aug-07 20:25 17.2
2020-Aug-07 20:20 17.2
2020-Aug-07 20:15 17.2
2020-Aug-07 20:10 17.8
2020-Aug-07 20:05 17.8
2020-Aug-07 19:55 17.8
2020-Aug-07 19:50 17.8
2020-Aug-07 19:45 18.3
2020-Aug-07 19:40 18.3
2020-Aug-07 19:35 18.3
2020-Aug-07 19:30 18.3
2020-Aug-07 19:25 18.3
2020-Aug-07 19:20 18.9
2020-Aug-07 19:15 18.9
2020-Aug-07 19:10 18.9
2020-Aug-07 19:05 19.4
2020-Aug-07 19:00 19.4
2020-Aug-07 18:55 19.4
2020-Aug-07 18:50 19.4
2020-Aug-07 18:45 20.0
2020-Aug-07 18:40 20.0
2020-Aug-07 18:35 20.0
2020-Aug-07 18:30 20.0
2020-Aug-07 18:25 20.6
2020-Aug-07 18:20 20.6
2020-Aug-07 18:15 20.6
2020-Aug-07 18:10 21.1
2020-Aug-07 18:05 21.1
2020-Aug-07 18:00 21.1
2020-Aug-07 17:55 21.7
2020-Aug-07 17:50 21.7
2020-Aug-07 17:45 21.7
2020-Aug-07 17:40 21.7
2020-Aug-07 17:35 22.2
2020-Aug-07 17:30 22.2
2020-Aug-07 17:25 22.2
2020-Aug-07 17:20 22.2
2020-Aug-07 17:15 22.2
2020-Aug-07 17:10 22.8
2020-Aug-07 17:05 22.8
2020-Aug-07 17:00 22.8
2020-Aug-07 16:55 22.8
2020-Aug-07 16:50 23.3
2020-Aug-07 16:45 23.3
2020-Aug-07 16:40 23.3
2020-Aug-07 16:35 23.3
2020-Aug-07 16:30 23.3
2020-Aug-07 16:25 23.3
2020-Aug-07 16:20 23.3
2020-Aug-07 16:15 23.3
2020-Aug-07 16:10 23.3
2020-Aug-07 16:05 23.9
2020-Aug-07 16:00 23.9
2020-Aug-07 15:55 23.9
2020-Aug-07 15:50 23.9
2020-Aug-07 15:45 23.9
2020-Aug-07 15:40 23.9
2020-Aug-07 15:35 23.9
2020-Aug-07 15:30 23.9
2020-Aug-07 15:25 24.4
2020-Aug-07 15:20 24.4
2020-Aug-07 15:10 24.4
2020-Aug-07 15:05 24.4
2020-Aug-07 15:00 223 0 gusting 5 24.4
2020-Aug-07 14:55 210 0 gusting 5 23.9
2020-Aug-07 14:50 235 0 gusting 6 23.9
2020-Aug-07 14:45 244 1 gusting 6 23.9
2020-Aug-07 14:40 225 0 gusting 6 23.9
2020-Aug-07 14:35 215 0 gusting 6 23.9
2020-Aug-07 14:30 225 0 gusting 6 23.9
2020-Aug-07 14:25 220 0 gusting 6 24.4
2020-Aug-07 14:20 195 0 gusting 6 24.4
2020-Aug-07 14:15 179 0 gusting 5 24.4
2020-Aug-07 14:10 207 0 gusting 7 24.4
2020-Aug-07 14:05 197 1 gusting 7 24.4
2020-Aug-07 14:00 225 1 gusting 7 24.4
2020-Aug-07 13:55 250 2 gusting 11 24.4
2020-Aug-07 13:50 224 1 gusting 11 23.9
2020-Aug-07 13:45 185 0 gusting 6 23.9
2020-Aug-07 13:40 23.9
2020-Aug-07 13:30 23.9
2020-Aug-07 13:25 23.9
2020-Aug-07 13:20 196 0 gusting 4 23.9
2020-Aug-07 13:15 165 1 gusting 6 23.9
2020-Aug-07 13:10 157 1 gusting 6 23.9
2020-Aug-07 13:05 150 0 gusting 3 23.9
2020-Aug-07 13:00 23.9
2020-Aug-07 12:55 23.9
2020-Aug-07 12:50 23.9
2020-Aug-07 12:45 23.9
2020-Aug-07 12:40 23.9
2020-Aug-07 12:35 157 0 gusting 4 23.9
2020-Aug-07 12:30 24.4
2020-Aug-07 12:25 24.4
2020-Aug-07 12:20 24.4
2020-Aug-07 12:15 24.4
2020-Aug-07 12:10 220 0 gusting 5 24.4
2020-Aug-07 12:05 198 0 gusting 5 25.0
2020-Aug-07 12:00 214 0 gusting 7 25.0
2020-Aug-07 11:55 225 0 gusting 7 24.4
2020-Aug-07 11:50 23.9
2020-Aug-07 11:45 23.3
2020-Aug-07 11:40 147 0 gusting 2 23.3
2020-Aug-07 11:35 149 0 gusting 4 23.3
2020-Aug-07 11:30 23.3
2020-Aug-07 11:25 23.3
2020-Aug-07 11:20 23.3
2020-Aug-07 11:10 23.3
2020-Aug-07 11:05 23.3
2020-Aug-07 10:55 23.3
2020-Aug-07 10:50 23.3
2020-Aug-07 10:45 253 0 gusting 4 23.3
2020-Aug-07 10:40 23.3
2020-Aug-07 10:35 178 0 gusting 7 23.3
2020-Aug-07 10:25 178 0 gusting 6 23.9
2020-Aug-07 10:20 246 0 gusting 4 23.9
2020-Aug-07 10:15 210 0 gusting 6 23.9
2020-Aug-07 10:10 220 0 gusting 6 23.9
2020-Aug-07 10:05 209 0 gusting 6 23.9
2020-Aug-07 10:00 177 0 gusting 5 23.9
2020-Aug-07 09:55 192 0 gusting 3 23.9
2020-Aug-07 09:50 208 0 gusting 4 23.3
2020-Aug-07 09:45 23.3
2020-Aug-07 09:40 23.3
2020-Aug-07 09:35 23.3
2020-Aug-07 09:30 193 0 gusting 4 23.3
2020-Aug-07 09:25 168 1 gusting 6 23.3
2020-Aug-07 09:20 166 1 gusting 6 23.3
2020-Aug-07 09:15 169 1 gusting 6 23.3
2020-Aug-07 09:10 165 1 gusting 6 23.3
2020-Aug-07 09:05 175 0 gusting 6 23.3
2020-Aug-07 09:00 182 0 gusting 5 23.3
2020-Aug-07 08:55 23.3
2020-Aug-07 08:50 22.8
2020-Aug-07 08:45 151 0 gusting 6 22.8
2020-Aug-07 08:40 171 0 gusting 6 22.2
2020-Aug-07 08:35 223 0 gusting 5 22.2
2020-Aug-07 08:30 186 0 gusting 4 22.2
2020-Aug-07 08:25 167 1 gusting 5 22.2
2020-Aug-07 08:20 175 0 gusting 5 22.2
2020-Aug-07 08:15 201 0 gusting 5 21.7
2020-Aug-07 08:10 183 0 gusting 5 21.7
2020-Aug-07 08:05 173 1 gusting 5 21.7
2020-Aug-07 08:00 193 0 gusting 5 21.7
2020-Aug-07 07:55 237 0 gusting 4 21.1
2020-Aug-07 07:50 21.1
2020-Aug-07 07:45 21.1
2020-Aug-07 07:40 203 0 gusting 4 20.6
2020-Aug-07 07:35 20.6
2020-Aug-07 07:30 20.6
2020-Aug-07 07:25 139 0 gusting 4 20.0
2020-Aug-07 07:20 142 1 gusting 4 19.4
2020-Aug-07 07:15 144 1 gusting 4 19.4
2020-Aug-07 07:10 143 0 gusting 4 18.9
2020-Aug-07 07:05 152 0 gusting 3 18.9
2020-Aug-07 07:00 157 0 gusting 3 18.3
2020-Aug-07 06:55 159 0 gusting 3 18.3
2020-Aug-07 06:50 18.3
2020-Aug-07 06:45 18.3
2020-Aug-07 06:40 18.3
2020-Aug-07 06:35 18.3
2020-Aug-07 06:30 18.3
2020-Aug-07 06:25 17.8
2020-Aug-07 06:20 17.8
2020-Aug-07 06:15 17.8
2020-Aug-07 06:10 17.2
2020-Aug-07 06:05 17.2
2020-Aug-07 06:00 17.2
2020-Aug-07 05:55 17.2
2020-Aug-07 05:50 16.7
2020-Aug-07 05:45 16.7
2020-Aug-07 05:40 16.7
2020-Aug-07 05:35 16.7
2020-Aug-07 05:30 16.1
2020-Aug-07 05:25 16.1
2020-Aug-07 05:20 15.6
2020-Aug-07 05:10 15.6
2020-Aug-07 05:05 15.6
2020-Aug-07 05:00 15.6
2020-Aug-07 04:55 15.6
2020-Aug-07 04:50 15.0
2020-Aug-07 04:45 15.0
2020-Aug-07 04:40 14.4
2020-Aug-07 04:35 14.4
2020-Aug-07 04:30 14.4
2020-Aug-07 04:25 14.4
2020-Aug-07 04:20 14.4
2020-Aug-07 04:15 13.9
2020-Aug-07 04:10 13.9
2020-Aug-07 04:05 13.9
2020-Aug-07 04:00 13.9
2020-Aug-07 03:55 13.9
2020-Aug-07 03:50 13.3
2020-Aug-07 03:45 13.3
2020-Aug-07 03:40 13.3
2020-Aug-07 03:35 13.3
2020-Aug-07 03:30 12.8
2020-Aug-07 03:25 12.8
2020-Aug-07 03:20 12.8
2020-Aug-07 03:15 12.2
2020-Aug-07 03:10 12.2
2020-Aug-07 03:05 12.2
2020-Aug-07 03:00 12.2
2020-Aug-07 02:55 11.7
2020-Aug-07 02:50 11.7
2020-Aug-07 02:45 11.7
2020-Aug-07 02:40 11.7
2020-Aug-07 02:35 11.7
2020-Aug-07 02:30 11.7
2020-Aug-07 02:25 11.7
2020-Aug-07 02:20 11.7
2020-Aug-07 02:15 11.7
2020-Aug-07 02:10 11.7
2020-Aug-07 02:05 11.7
2020-Aug-07 01:55 11.7
2020-Aug-07 01:50 11.7
2020-Aug-07 01:45 11.7
2020-Aug-07 01:40 11.7
2020-Aug-07 01:35 12.2
2020-Aug-07 01:30 12.2
2020-Aug-07 01:25 12.2
2020-Aug-07 01:20 12.2
2020-Aug-07 01:15 12.2
2020-Aug-07 01:10 12.2
2020-Aug-07 01:05 12.2
2020-Aug-07 01:00 12.2
2020-Aug-07 00:55 12.2
2020-Aug-07 00:50 12.2
2020-Aug-07 00:45 12.2
2020-Aug-07 00:40 12.2
2020-Aug-07 00:35 12.2
2020-Aug-07 00:30 12.8
2020-Aug-07 00:25 12.8
2020-Aug-07 00:20 12.8
2020-Aug-07 00:15 12.8
2020-Aug-07 00:10 12.8
2020-Aug-07 00:05 12.8
2020-Aug-06 23:55 12.8
2020-Aug-06 23:50 12.8
2020-Aug-06 23:45 12.8
2020-Aug-06 23:40 12.8
2020-Aug-06 23:35 13.3
2020-Aug-06 23:30 13.3
2020-Aug-06 23:25 13.3
2020-Aug-06 23:20 13.3
2020-Aug-06 23:15 13.3
2020-Aug-06 23:10 13.3
2020-Aug-06 23:05 13.3
2020-Aug-06 23:00 13.3
2020-Aug-06 22:55 13.3
2020-Aug-06 22:50 13.3
2020-Aug-06 22:45 13.9
2020-Aug-06 22:40 13.9
2020-Aug-06 22:35 13.9
2020-Aug-06 22:30 13.9
2020-Aug-06 22:25 13.9
2020-Aug-06 22:20 14.4
2020-Aug-06 22:15 14.4
2020-Aug-06 22:10 14.4
2020-Aug-06 22:05 14.4
2020-Aug-06 22:00 14.4
2020-Aug-06 21:55 14.4
2020-Aug-06 21:50 14.4
2020-Aug-06 21:45 14.4
2020-Aug-06 21:40 14.4
2020-Aug-06 21:35 15.0
2020-Aug-06 21:30 15.0
2020-Aug-06 21:25 15.0
2020-Aug-06 21:20 15.0
2020-Aug-06 21:15 15.0
2020-Aug-06 21:10 15.6
2020-Aug-06 21:05 15.6
2020-Aug-06 21:00 15.6
2020-Aug-06 20:55 15.6
2020-Aug-06 20:50 15.6
2020-Aug-06 20:45 15.6
2020-Aug-06 20:40 16.1
2020-Aug-06 20:35 16.1
2020-Aug-06 20:30 16.1
2020-Aug-06 20:25 16.1
2020-Aug-06 20:20 16.7
2020-Aug-06 20:15 16.7
2020-Aug-06 20:10 16.7
2020-Aug-06 20:05 16.7
2020-Aug-06 20:00 16.7
2020-Aug-06 19:55 16.7
2020-Aug-06 19:50 17.2
2020-Aug-06 19:45 17.2
2020-Aug-06 19:40 17.2
2020-Aug-06 19:35 17.2
2020-Aug-06 19:30 17.2
2020-Aug-06 19:25 17.2
2020-Aug-06 19:20 17.2
2020-Aug-06 19:15 17.2
2020-Aug-06 19:10 17.8
2020-Aug-06 19:05 17.8
2020-Aug-06 19:00 17.8
2020-Aug-06 18:55 17.8
2020-Aug-06 18:50 17.8
2020-Aug-06 18:45 17.8
2020-Aug-06 18:40 17.8
2020-Aug-06 18:35 17.8
2020-Aug-06 18:30 17.8
2020-Aug-06 18:25 17.8
2020-Aug-06 18:20 18.3
2020-Aug-06 18:15 18.3
2020-Aug-06 18:10 18.3
2020-Aug-06 18:05 18.3
2020-Aug-06 18:00 18.3
2020-Aug-06 17:55 18.3
2020-Aug-06 17:50 18.3
2020-Aug-06 17:45 18.3
2020-Aug-06 17:40 18.3
2020-Aug-06 17:35 18.3
2020-Aug-06 17:30 18.3
2020-Aug-06 17:25 18.3
2020-Aug-06 17:20 18.3
2020-Aug-06 17:15 18.3
2020-Aug-06 17:10 18.3
2020-Aug-06 17:05 18.3
2020-Aug-06 17:00 18.3